Date String (YYYY-MM-DD hh:mm:ss) UTC,Instrument flags,Ambient pressure (hPa),Sample flow (lpm),Bypass flow (lpm),Sample temperature (°C),Ambient temperature (°C),ASC tube jacket temperature (°C),LED temperature (°C),Box temperature (°C),Sample RH (%),Span deviation,Mass concentration (μg/m³),Mass concentration (μg/m³),Mass concentration (μg/m³)
DateTimeUTC,F1_M11,P_M11,Q1_M11,Q2_M11,T1_M11,T2_M11,T3_M11,T4_M11,T5_M11,U1_M11,ZSPAN_M11,X0_M11,X2_M11,X1_M11
2023-02-04 02:00:00,,0827.5,5.00,0.00,25.1,23.4,00.0,34.1,26.8,05.2,0000.0,0003.06,0000.92,0000.41
2023-02-04 02:01:00,,0827.5,5.00,0.00,25.1,23.4,00.0,34.1,26.7,05.0,0000.0,0003.08,0000.92,0000.41
2023-02-04 02:02:00,,0827.5,4.99,0.00,25.1,23.4,00.0,34.1,26.7,05.4,0000.0,0002.97,0000.90,0000.41
2023-02-04 02:03:00,,0827.5,5.01,0.00,25.1,23.4,00.0,34.1,26.7,05.4,0000.0,0002.78,0000.85,0000.40
2023-02-04 02:04:00,,0827.5,5.00,0.00,25.1,23.4,00.0,34.0,26.7,05.3,0000.0,0002.75,0000.84,0000.38
2023-02-04 02:05:00,,0827.5,5.00,0.00,25.0,23.3,00.0,34.0,26.7,05.4,0000.0,0002.71,0000.80,0000.38
2023-02-04 02:06:00,,0827.5,4.99,0.00,25.0,23.3,00.0,34.0,26.7,05.4,0000.0,0002.57,0000.79,0000.39
2023-02-04 02:07:00,,0827.5,4.99,0.00,25.0,23.3,00.0,34.0,26.6,05.2,0000.0,0002.45,0000.74,0000.39
2023-02-04 02:08:00,,0827.5,4.99,0.00,25.0,23.2,00.0,34.0,26.6,05.7,0000.0,0002.27,0000.76,0000.38
2023-02-04 02:09:00,,0827.5,5.00,0.00,24.9,23.1,00.0,34.0,26.6,05.6,0000.0,0001.78,0000.77,0000.38
2023-02-04 02:10:00,,0827.5,4.99,0.00,24.9,23.2,00.0,33.9,26.6,05.4,0000.0,0001.96,0000.83,0000.38
2023-02-04 02:11:00,,0827.5,5.00,0.00,24.9,23.2,00.0,33.9,26.5,05.4,0000.0,0001.96,0000.84,0000.38
2023-02-04 02:12:00,,0827.5,5.00,0.00,24.9,23.2,00.0,33.9,26.6,05.5,0000.0,0001.97,0000.85,0000.36
2023-02-04 02:13:00,,0827.4,4.99,0.00,24.9,23.1,00.0,33.9,26.5,05.7,0000.0,0002.03,0000.85,0000.36
2023-02-04 02:14:00,,0827.4,4.99,0.00,24.8,23.0,00.0,33.9,26.5,05.7,0000.0,0002.02,0000.85,0000.36
2023-02-04 02:15:00,,0827.4,5.00,0.00,24.8,23.0,00.0,33.8,26.5,05.6,0000.0,0002.04,0000.85,0000.37
2023-02-04 02:16:00,,0827.4,5.00,0.00,24.8,23.1,00.0,33.8,26.5,05.4,0000.0,0002.02,0000.86,0000.37
2023-02-04 02:17:00,,0827.3,4.99,0.00,24.8,23.1,00.0,33.8,26.5,05.3,0000.0,0002.00,0000.84,0000.34
2023-02-04 02:18:00,,0827.3,5.00,0.00,24.8,23.1,00.0,33.8,26.4,05.4,0000.0,0002.00,0000.85,0000.33
2023-02-04 02:19:00,,0827.4,4.99,0.00,24.7,23.1,00.0,33.8,26.4,05.9,0000.0,0002.08,0000.89,0000.34
2023-02-04 02:20:00,,0827.4,5.01,0.00,24.7,23.1,00.0,33.8,26.4,06.0,0000.0,0002.04,0000.89,0000.33
2023-02-04 02:21:00,,0827.3,5.00,0.00,24.7,23.1,00.0,33.7,26.4,06.0,0000.0,0001.95,0000.85,0000.32
2023-02-04 02:22:00,,0827.4,5.00,0.00,24.7,23.1,00.0,33.7,26.4,05.6,0000.0,0002.35,0000.84,0000.32
2023-02-04 02:23:00,,0827.4,5.00,0.00,24.7,23.0,00.0,33.7,26.4,05.5,0000.0,0002.37,0000.84,0000.33
2023-02-04 02:24:00,,0827.4,5.00,0.00,24.7,23.0,00.0,33.7,26.3,05.8,0000.0,0002.31,0000.85,0000.32
2023-02-04 02:25:00,,0827.4,5.00,0.00,24.7,23.0,00.0,33.7,26.3,05.7,0000.0,0002.29,0000.85,0000.32
2023-02-04 02:26:00,,0827.4,4.98,0.00,24.6,23.0,00.0,33.7,26.3,05.6,0000.0,0002.37,0000.85,0000.32
2023-02-04 02:27:00,,0827.4,5.00,0.00,24.6,22.9,00.0,33.6,26.3,05.6,0000.0,0002.99,0000.85,0000.32
2023-02-04 02:28:00,,0827.3,5.00,0.00,24.6,22.9,00.0,33.6,26.3,05.6,0000.0,0003.08,0000.87,0000.33
2023-02-04 02:29:00,,0827.4,4.99,0.00,24.6,23.0,00.0,33.6,26.2,05.6,0000.0,0003.11,0000.89,0000.34
2023-02-04 02:30:00,,0827.4,5.00,0.00,24.6,23.0,00.0,33.6,26.3,05.6,0000.0,0002.95,0000.85,0000.33
2023-02-04 02:31:00,,0827.3,5.00,0.00,24.5,22.9,00.0,33.6,26.2,05.8,0000.0,0002.85,0000.83,0000.33
2023-02-04 02:32:00,,0827.4,5.01,0.00,24.5,22.9,00.0,33.6,26.2,05.5,0000.0,0002.79,0000.81,0000.32
2023-02-04 02:33:00,,0827.4,4.99,0.00,24.5,22.9,00.0,33.5,26.2,05.6,0000.0,0002.34,0000.77,0000.32
2023-02-04 02:34:00,,0827.4,4.99,0.00,24.5,22.9,00.0,33.5,26.2,05.3,0000.0,0002.33,0000.77,0000.31
2023-02-04 02:35:00,,0827.5,5.00,0.00,24.5,22.9,00.0,33.5,26.2,05.6,0000.0,0002.37,0000.76,0000.31
2023-02-04 02:36:00,,0827.4,4.99,0.00,24.5,23.0,00.0,33.5,26.3,05.6,0000.0,0002.49,0000.78,0000.32
2023-02-04 02:37:00,,0827.4,5.00,0.00,24.5,23.0,00.0,33.5,26.3,05.3,0000.0,0002.42,0000.79,0000.32
2023-02-04 02:38:00,,0827.4,4.98,0.00,24.5,23.1,00.0,33.5,26.3,05.1,0000.0,0001.91,0000.79,0000.33
2023-02-04 02:39:00,,0827.3,5.00,0.00,24.6,23.1,00.0,33.5,26.4,05.5,0000.0,0001.94,0000.79,0000.33
2023-02-04 02:40:00,,0827.5,5.00,0.00,24.6,23.2,00.0,33.5,26.4,05.4,0000.0,0001.97,0000.77,0000.33
2023-02-04 02:41:00,,0827.5,5.00,0.00,24.6,23.2,00.0,33.5,26.4,05.5,0000.0,0001.96,0000.78,0000.34
2023-02-04 02:42:00,,0827.5,5.00,0.00,24.6,23.2,00.0,33.5,26.5,05.4,0000.0,0001.97,0000.78,0000.35
2023-02-04 02:43:00,,0827.5,5.01,0.00,24.6,23.2,00.0,33.5,26.5,05.5,0000.0,0001.96,0000.78,0000.36
2023-02-04 02:44:00,,0827.5,5.00,0.00,24.6,23.3,00.0,33.5,26.5,05.3,0000.0,0001.96,0000.83,0000.38
2023-02-04 02:45:00,,0827.5,4.99,0.00,24.6,23.3,00.0,33.5,26.5,05.2,0000.0,0002.30,0000.86,0000.39
2023-02-04 02:46:00,,0827.5,5.02,0.00,24.6,23.3,00.0,33.5,26.5,04.9,0000.0,0002.28,0000.84,0000.39
2023-02-04 02:47:00,,0827.5,4.99,0.00,24.7,23.3,00.0,33.5,26.5,04.8,0000.0,0002.19,0000.82,0000.39
2023-02-04 02:48:00,,0827.5,5.01,0.00,24.7,23.3,00.0,33.5,26.5,04.9,0000.0,0002.20,0000.82,0000.39
2023-02-04 02:49:00,,0827.5,4.99,0.00,24.7,23.4,00.0,33.5,26.5,04.9,0000.0,0002.29,0000.86,0000.38
2023-02-04 02:50:00,,0827.5,5.01,0.00,24.7,23.3,00.0,33.5,26.6,04.9,0000.0,0002.22,0000.86,0000.38
2023-02-04 02:51:00,,0827.4,5.02,0.00,24.7,23.3,00.0,33.5,26.5,04.9,0000.0,0002.20,0000.86,0000.38
2023-02-04 02:52:00,,0827.4,5.01,0.00,24.7,23.2,00.0,33.5,26.5,04.9,0000.0,0002.25,0000.86,0000.37
2023-02-04 02:53:00,,0827.4,4.99,0.00,24.7,23.3,00.0,33.5,26.5,04.8,0000.0,0002.25,0000.87,0000.37
2023-02-04 02:54:00,,0827.4,5.01,0.00,24.7,23.3,00.0,33.5,26.5,04.9,0000.0,0002.22,0000.86,0000.36
2023-02-04 02:55:00,,0827.4,5.00,0.00,24.7,23.2,00.0,33.5,26.5,04.8,0000.0,0002.18,0000.83,0000.36
2023-02-04 02:56:00,,0827.4,5.01,0.00,24.7,23.1,00.0,33.5,26.5,04.8,0000.0,0001.82,0000.78,0000.35
2023-02-04 02:57:00,,0827.3,5.00,0.00,24.7,23.1,00.0,33.5,26.5,04.9,0000.0,0001.79,0000.80,0000.35
2023-02-04 02:58:00,,0827.3,5.00,0.00,24.7,23.2,00.0,33.5,26.5,05.3,0000.0,0001.92,0000.85,0000.36
2023-02-04 02:59:00,,0827.4,5.01,0.00,24.7,23.3,00.0,33.5,26.5,04.9,0000.0,0001.84,0000.84,0000.36
